Regional Weather Roundup
Issued by NWS Little Rock, AR

Home | Current Version | Previous Version | Graphics & Text | Print | Product List | Glossary On
Versions: 1 2 3 4 5 6 7 8 9 10 11 12 13 14 15 16 17 18 19 20 21 22 23 24 25 26 27 28 29 30 31 32 33 34 35 36 37 38 39 40 41 42 43 44 45 46 47 48 49 50
042
ASUS44 KLZK 171905
RWRLZK

WEATHER ROUNDUP FOR ARKANSAS
NATIONAL WEATHER SERVICE LITTLE ROCK AR
100 PM CST TUE JAN 17 2017

NOTE: "FAIR" INDICATES FEW OR NO CLOUDS BELOW 12,000 FEET WITH NO
SIGNIFICANT WEATHER AND/OR OBSTRUCTIONS TO VISIBILITY.

ARZ001-003-010-029-172000-
NORTHWEST ARKANSAS

CITY           SKY/WX    TMP DP  RH WIND       PRES   REMARKS
FAYETTEVILLE   CLOUDY    41  37  86 W7        30.13F
FORT SMITH     CLOUDY    45  35  68 W8        30.16F
HARRISON       CLOUDY    43  38  82 W9        30.11S
BENTONVILLE    CLOUDY   N/A N/A N/A W6        30.14S
ROGERS         CLOUDY    39  35  86 W7        30.14F
SILOAM SPGS    CLOUDY    41  34  75 W7        30.13F
HIGHFILL       CLOUDY    41  36  82 W8        30.13F
SPRINGDALE     CLOUDY    39  36  87 W7        30.15F
$$

ARZ004-005-016-172000-
NORTH CENTRAL ARKANSAS

CITY           SKY/WX    TMP DP  RH WIND       PRES   REMARKS
BATESVILLE     MOSUNNY   52  39  62 NW9       30.11S
FLIPPIN        CLOUDY    46  36  66 W8        30.09S
MTN HOME       CLOUDY    44  37  76 NW6       30.09F
$$

ARZ040-041-172000-
WEST CENTRAL ARKANSAS

CITY           SKY/WX    TMP DP  RH WIND       PRES   REMARKS
MENA           CLOUDY    54  41  62 W5        30.13F
MOUNT IDA      MOSUNNY   53  38  56 VRB5      30.11F
$$

ARZ009-017-025-026-028-172000-
NORTHEAST ARKANSAS

CITY           SKY/WX    TMP DP  RH WIND       PRES   REMARKS
CORNING        CLOUDY    46  41  81 W13       30.09F
JONESBORO      MOSUNNY   51  41  68 NW8       30.09F
NEWPORT        CLOUDY    52  42  69 NW8       30.11S
WALNUT RIDGE   CLOUDY    48  37  66 W10       30.10S
BLYTHEVILLE    CLOUDY    54  44  69 W8        30.08F
$$

ARZ022-023-033-042-044-172000-
CENTRAL ARKANSAS

CITY           SKY/WX    TMP DP  RH WIND       PRES   REMARKS
LITTLE ROCK    PTSUNNY   53  41  63 NW8       30.13F
N LITTLE ROCK    N/A     50  41  72 N6        30.14F
JACKSONVILLE   PTSUNNY   52  42  69 NW10      30.12S
SEARCY         MOSUNNY   54  42  64 SW7       30.12F
HOT SPRINGS    CLOUDY    54  40  59 NW3       30.13F
RUSSELLVILLE   CLOUDY    50  40  68 W13G22    30.12F
CLINTON        CLOUDY    50  41  71 VRB6      30.11F
$$

ARZ036-172000-
EAST ARKANSAS

CITY           SKY/WX    TMP DP  RH WIND       PRES   REMARKS
WEST MEMPHIS   CLOUDY    54  46  74 W8        30.09F
$$

ARZ050-053-066-070-073-172000-
SOUTHWEST ARKANSAS

CITY           SKY/WX    TMP DP  RH WIND       PRES   REMARKS
ARKADELPHIA    FAIR      56  47  71 SW7       30.14F
CAMDEN         PTSUNNY   55  46  71 S5        30.14S
TEXARKANA      CLOUDY    52  42  69 W7        30.16S
EL DORADO      LGT RAIN  53  49  86 SW5       30.14F
DE QUEEN       PTSUNNY   53  41  63 W7        30.15F
$$

ARZ056-057-069-172000-
SOUTHEAST ARKANSAS

CITY           SKY/WX    TMP DP  RH WIND       PRES   REMARKS
PINE BLUFF     CLOUDY    55  47  74 SW7       30.13F
STUTTGART      CLOUDY    52  41  66 W9        30.14S
MONTICELLO     CLOUDY    55  48  77 SW3       30.13S

$$






USA.gov is the U.S. government's official web portal to all federal, state and local government web resources and services.